Hulianwang W. Digui 15-05

operational
NORAD ID: 66957 Int'l Des: 2025-287 Owner: ZXW Country: CN Constellation: xingwang
LEOCIRCULARPOLAR

Hulianwang W. Digui 15-05について

説明を読み込み中...

リアルタイム位置

3D地球を読み込み中...

次回通過

高度履歴

Altitude vs Time

uPlot chart will show altitude changes over time

軌道要素

1 66957U 25287E 25346.69967332 -.00000151 00000-0 -19373-3 0 9997
2 66957 86.4945 346.1700 0007219 190.5502 169.5507 13.69137019 523
Epoch: Dec 12, 2025 • Age: 43 hours

現在のステータス

高度 1008.8 km
速度 7.35 km/s
衛星直下点 53.58°N, 95.15°W
打ち上げ日 Dec 8, 2025
運用期間 6 days
タイプ other

技術仕様

分類 Payload
質量 800.00 kg
乾燥質量 800.00 kg
総質量 800.00 kg
長さ 3.00 m
直径 1.00 m
スパン 10.00 m
形状 Box + 2 Pan
製造者 SECM
バスタイプ Guowang S
フェーズステータス In Orbit
所有者/国 ZXW/CN

大規模コンステレーション

Loading constellations...